Regional Weather Roundup
Issued by NWS Albany, NY

Home | Current Version | Previous Version | Text Only | Print | Product List | Glossary Off
Versions: 1 2 3 4 5 6 7 8 9 10 11 12 13 14 15 16 17 18 19 20 21 22 23 24 25 26 27 28

000
ASUS41 KALY 230310
RWRALY

NEW YORK STATE HOURLY WEATHER ROUNDUP
NATIONAL WEATHER SERVICE ALBANY NY
1100 PM EDT MON MAY 22 2017

NOTE: "FAIR" INDICATES FEW OR NO CLOUDS BELOW 12,000 FEET WITH NO
SIGNIFICANT WEATHER AND/OR NO OBSTRUCTIONS TO VISIBILITY.

NYZ032-033-038>043-046>054-057>066-NYZ062>081-082-084-230400-
EAST


CITY           SKY/WX    TMP DP  RH WIND       PRES   REMARKS
ALBANY         CLOUDY    57  53  86 SW7       29.98S
GLENS FALLS    NOT AVBL
POUGHKEEPSIE   CLOUDY    57  56  96 CALM      29.96F
NEWBURGH       CLOUDY    57  57 100 CALM      29.98S FOG
MONTGOMERY     CLOUDY    58  56  93 CALM      29.96F
WHITE PLAINS   FOG       58  57  97 NW6       29.95F VSB 1/4
ISLIP          FOG       60  60 100 CALM      29.94F VSB 1/2
NEW YORK CITY  CLOUDY    61  59  93 NW7       29.95F
CENTRAL PARK   CLOUDY    60  59  96 W6        29.98F FOG
$$

NYZ005>009-017-018-044>046-055-056-230400-
CENTRAL


CITY           SKY/WX    TMP DP  RH WIND       PRES   REMARKS
FULTON         CLOUDY    46  44  93 S3        30.00R
SYRACUSE       CLOUDY    52  43  71 SW6       30.00S
ROME           MOCLDY    47  47 100 CALM      30.01S
ELMIRA         CLOUDY    50  45  83 NW3       30.02R
BINGHAMTON     CLOUDY    52  42  69 N10       30.01R
MONTICELLO     CLOUDY    54  54 100 CALM      30.00F VSB 1/2
$$

NYZ026>034-041>043-087-230400-
NORTH


CITY           SKY/WX    TMP DP  RH WIND       PRES   REMARKS
WATERTOWN      CLOUDY    53  48  83 SW7       29.98S
FORT DRUM      NOT AVBL
OGDENSBURG     FAIR      53  48  84 SW7       29.94S
MASSENA        MOCLDY    55  48  77 SW8       29.93S
SARANAC LAKE   CLOUDY    49  47  93 SW8       29.95R
PLATTSBURGH    CLOUDY    57  49  74 S5        29.93R
$$

NYZ001>004-010>016-019>021-085-230400-
WEST


CITY           SKY/WX    TMP DP  RH WIND       PRES   REMARKS
NIAGARA FALLS  PTCLDY    53  43  68 S5        29.97F
BUFFALO        CLOUDY    52  44  74 SW7       29.99S
DUNKIRK        PTCLDY    52  43  71 SW6       30.00S
JAMESTOWN      CLOUDY    48  41  76 S5        30.03R
WELLSVILLE     CLEAR     51  41  68 NW6       30.04S
ROCHESTER      CLEAR     52  42  69 SW7       30.00S
PENN YAN       CLOUDY    53  40  61 SW6       30.02R
$$

             KEY
       WCI = WIND CHILL INDEX
       VSB = VISIBILITY
       HX  = HEAT INDEX
$$




USA.gov is the U.S. government's official web portal to all federal, state and local government web resources and services.